sat.trackr.live / text

‹ back to catalog

STARLINK-5770

NORAD 56026 · 2023-042AS

PAYLOAD ACTIVE UNKNOWN

§ Identity

Operator
Country
US
Launch date
2023-03-24
Launch site
AFETR
Launch vehicle
Mass (kg)
RCS (m²)

Purposes: comms

External: N2YO · Heavens-Above · Gunter

§ Orbital elements

Epoch: 2026-09-20T19:56:49.963776Z

Period
94.27 min
Inclination
43.0022°
Eccentricity
0.0001242
Mean motion
15.27577582 rev/d
Perigee alt
482.2 km
Apogee alt
483.9 km
Semi-major
6,861.2 km
B*
2.1470e-5
RAAN
22.8480°
Arg perigee
269.9936°
Mean anomaly
90.0774°
Rev number
19,287

§ Raw data

STARLINK-57701 56026U 23042AS  26263.83113384  .00000329  00000+0  21470-4 0  99912 56026  43.0022  22.8480 0001242 269.9936  90.0774 15.27577582192872

JSON: /api/v1/satellites/56026 · /tle

For live sub-satellite position, see the globe view (requires WebGL).

§ Visibility from observer

Set your observer location to see the next 7 days of passes ≥ 10°. The values pass through the URL so the page stays shareable.

No JS? Fill the form by hand. The geolocation button needs JavaScript.